This is the latest recevied weather packets stored in our database for station/object 7M1JBF-11. If no packets are shown the sender has not sent any weather packets the latest 10 day(s).
| Time | Temp. | Humidity | Pressure | Rain* | Wind** | Luminosity | Snow |
|---|---|---|---|---|---|---|---|
| 1777845806 | 21.67° C | 100% | 996.3 hPa | 3.05 mm | - | - | - |
| 1777845204 | 21.11° C | 100% | 996.1 hPa | 3.05 mm | - | - | - |
| 1777844603 | 21.11° C | 100% | 995.9 hPa | 3.05 mm | - | - | - |
| 1777844002 | 21.11° C | 100% | 995.8 hPa | 3.05 mm | - | - | - |
| 1777843400 | 20.56° C | 100% | 996.2 hPa | 3.05 mm | - | - | - |
| 1777842799 | 20.56° C | 100% | 995.8 hPa | 2.79 mm | - | - | - |
| 1777842197 | 20.56° C | 100% | 995.4 hPa | 2.79 mm | - | - | - |
| 1777841596 | 20° C | 100% | 995.7 hPa | 2.79 mm | - | - | - |
| 1777840995 | 20° C | 100% | 995.9 hPa | 2.79 mm | - | - | - |
| 1777840393 | 20° C | 100% | 996.1 hPa | 1.78 mm | - | - | - |
| 1777839792 | 20° C | 100% | 996.4 hPa | 1.27 mm | - | - | - |
| 1777837988 | 20° C | 100% | 997.5 hPa | 1.02 mm | - | - | - |
| 1777837387 | 20° C | 100% | 997.8 hPa | 1.02 mm | - | - | - |
| 1777836785 | 19.44° C | 100% | 997.8 hPa | 1.02 mm | - | - | - |
| 1777836184 | 19.44° C | 100% | 998.1 hPa | 1.02 mm | - | - | - |
| 1777835583 | 19.44° C | 100% | 998.5 hPa | 1.02 mm | - | - | - |
| 1777834981 | 19.44° C | 100% | 998.1 hPa | 1.02 mm | - | - | - |
| 1777834380 | 19.44° C | 100% | 998.7 hPa | 0.76 mm | - | - | - |
| 1777833177 | 19.44° C | 100% | 999.4 hPa | 0.51 mm | - | - | - |
| 1777832576 | 19.44° C | 100% | 999.6 hPa | 0.25 mm | - | - | - |
| 1777831373 | 19.44° C | 100% | 1000.2 hPa | 0.25 mm | - | - | - |
| 1777830772 | 19.44° C | 100% | 1000.1 hPa | 0.25 mm | - | - | - |
| 1777830170 | 19.44° C | 100% | 1000.5 hPa | 0.25 mm | - | - | - |
| 1777829571 | 19.44° C | 100% | 1000.8 hPa | 0.25 mm | - | - | - |
| 1777828968 | 19.44° C | 100% | 1001.1 hPa | 0.25 mm | - | - | - |
* Rain since midnight (hover to see other rain measurements)
** Current wind speed in m/s (hover to see current wind gust speed)